QPF
0.00 0.00 0.06 0.03 0.04 0.06 0.04 0.03 0.01 0.01 0.02 0.02 0.01 0.02 0.03 0.00 0.00 0.00 0.00 0.00 0.00 0.00 0.00 0.00 0.00 0.00 0.00 0.00 0.00 0.00 0.00 0.00 0.00 0.00 0.00 0.00 0.00 0.01 0.02 0.01 0.00 0.00 0.00
0.00 0.00 0.03 0.02 0.02 0.04 0.03 0.02 0.00 0.00 0.02 0.05 0.02 0.01 0.02 0.00 0.00 0.00 0.00 0.00 0.00 0.00 0.00 0.00 0.00 0.00 0.00 0.00 0.01 0.00 0.00 0.00 0.00 0.00 0.00 0.00 0.00 0.00 0.00 0.00 0.00 0.00 0.01
0.00 0.00 0.01 0.01 0.00 0.00 0.00 0.01 0.00 0.00 0.01 0.03 0.02 0.01 0.00 0.00 0.00 0.00 0.00 0.00 0.00 0.00 0.00 0.00 0.00 0.00 0.00 0.00 0.00 0.00 0.00 0.00 0.00 0.00 0.00 0.00 0.00 0.00 0.00 0.00 0.00 0.00 0.00
0.00 0.00 0.00 0.00 0.00 0.00 0.00 0.00 0.01 0.01 0.01 0.01 0.01 0.01 0.00 0.00 0.00 0.00 0.00 0.00 0.00 0.00 0.00 0.00 0.00 0.00 0.00 0.00 0.00 0.00 0.00 0.00 0.00 0.00 0.00 0.00 0.00 0.00 0.00 0.00 0.00 0.00 0.00
0.00 0.00 0.00 0.00 0.00 0.00 0.00 0.00 0.00 0.00 0.00 0.00 0.00 0.00 0.00 0.00 0.00 0.00 0.00 0.00 0.00 0.00 0.00 0.00 0.00 0.00 0.00 0.01 0.01 0.00 0.00 0.00 0.04 0.00 0.00 0.00 0.00 0.00 0.00 0.01 0.02 0.02 0.02
0.00 0.00 0.00 0.00 0.00 0.00 0.00 0.00 0.00 0.00 0.00 0.00 0.00 0.00 0.00 0.00 0.00 0.00 0.00 0.00 0.00 0.00 0.00 0.00 0.00 0.00 0.05 0.01 0.00 0.00 0.00 0.00 0.01 0.00 0.00 0.00 0.00 0.00 0.01 0.02 0.01 0.00 0.00
0.00 0.00 0.00 0.00 0.00 0.00 0.00 0.00 0.00 0.00 0.00 0.00 0.00 0.00 0.00 0.00 0.00 0.00 0.00 0.00 0.00 0.00 0.00 0.00 0.00 0.01 0.04 0.01 0.00 0.00 0.02 0.10 0.02 0.00 0.00 0.00 0.00 0.00 0.00 0.01 0.00 0.00 0.00
0.00 0.00 0.00 0.00 0.00 0.00 0.00 0.00 0.00 0.00 0.00 0.00 0.00 0.00 0.00 0.00 0.00 0.00 0.00 0.00 0.00 0.00 0.00 0.00 0.00 0.02 0.02 0.01 0.00 0.05 0.05 0.08 0.01 0.02 0.00 0.00 0.00 0.00 0.00 0.00 0.00 0.00 0.00
0.00 0.00 0.00 0.00 0.00 0.00 0.00 0.00 0.00 0.00 0.00 0.00 0.00 0.00 0.00 0.00 0.00 0.00 0.01 0.00 0.00 0.00 0.00 0.00 0.00 0.02 0.01 0.00 0.01 0.02 0.00 0.01 0.00 0.00 0.00 0.00 0.00 0.00 0.00 0.00 0.00 0.00 0.00
0.00 0.00 0.03 0.01 0.01 0.00 0.09 0.02 0.02 0.09 0.00 0.00 0.00 0.00 0.00 0.00 0.00 0.00 0.01 0.01 0.00 0.00 0.00 0.00 0.00 0.02 0.02 0.00 0.01 0.02 0.02 0.00 0.00 0.00 0.00 0.00 0.00 0.00 0.00 0.00 0.00 0.02 0.01
0.00 0.00 0.03 0.04 0.03 0.00 0.03 0.10 0.21 0.20 0.03 0.05 0.02 0.00 0.00 0.00 0.00 0.00 0.01 0.03 0.01 0.00 0.00 0.00 0.00 0.01 0.03 0.02 0.00 0.00 0.01 0.00 0.00 0.00 0.00 0.00 0.00 0.00 0.00 0.00 0.05 0.06 0.02
0.00 0.00 0.00 0.00 0.00 0.00 0.01 0.22 0.34 0.31 0.28 0.28 0.19 0.00 0.00 0.00 0.00 0.01 0.01 0.06 0.02 0.00 0.00 0.00 0.00 0.00 0.01 0.00 0.00 0.06 0.01 0.00 0.00 0.00 0.00 0.00 0.00 0.00 0.00 0.01 0.06 0.02 0.01
0.00 0.00 0.00 0.00 0.00 0.00 0.06 0.08 0.08 0.07 0.03 0.01 0.01 0.00 0.00 0.00 0.00 0.04 0.05 0.04 0.03 0.00 0.00 0.00 0.00 0.02 0.01 0.00 0.00 0.01 0.03 0.00 0.00 0.00 0.00 0.00 0.00 0.00 0.00 0.00 0.03 0.01 0.00
0.00 0.00 0.00 0.00 0.00 0.00 0.00 0.00 0.00 0.00 0.00 0.00 0.00 0.00 0.00 0.00 0.00 0.01 0.10 0.11 0.00 0.00 0.00 0.00 0.00 0.00 0.00 0.00 0.00 0.00 0.00 0.00 0.00 0.00 0.00 0.00 0.00 0.02 0.00 0.00 0.01 0.01 0.00
0.00 0.00 0.00 0.00 0.00 0.00 0.00 0.00 0.00 0.00 0.00 0.00 0.00 0.00 0.00 0.00 0.00 0.01 0.01 0.00 0.00 0.00 0.00 0.00 0.00 0.00 0.00 0.00 0.00 0.00 0.00 0.00 0.00 0.00 0.00 0.00 0.00 0.02 0.00 0.00 0.00 0.00 0.00
0.00 0.00 0.00 0.00 0.01 0.00 0.00 0.00 0.00 0.00 0.00 0.00 0.00 0.00 0.00 0.00 0.00 0.07 0.03 0.01 0.00 0.00 0.00 0.00 0.00 0.00 0.00 0.00 0.00 0.00 0.00 0.00 0.00 0.00 0.00 0.00 0.01 0.01 0.00 0.00 0.00 0.00 0.00
0.00 0.00 0.00 0.00 0.01 0.00 0.00 0.00 0.00 0.00 0.00 0.00 0.00 0.00 0.00 0.00 0.00 0.10 0.03 0.00 0.00 0.00 0.00 0.00 0.00 0.00 0.01 0.00 0.00 0.00 0.00 0.00 0.00 0.00 0.00 0.00 0.00 0.00 0.00 0.00 0.00 0.00 0.00
0.00 0.01 0.03 0.01 0.00 0.00 0.00 0.00 0.00 0.01 0.00 0.00 0.00 0.00 0.00 0.00 0.00 0.01 0.00 0.00 0.02 0.01 0.00 0.00 0.00 0.00 0.00 0.00 0.00 0.00 0.00 0.00 0.00 0.00 0.00 0.00 0.00 0.00 0.00 0.00 0.00 0.00 0.00
0.01 0.02 0.02 0.05 0.01 0.01 0.00 0.00 0.01 0.00 0.01 0.00 0.00 0.00 0.00 0.00 0.00 0.06 0.02 0.00 0.01 0.05 0.01 0.00 0.00 0.00 0.00 0.00 0.00 0.00 0.00 0.00 0.00 0.00 0.00 0.00 0.00 0.00 0.00 0.00 0.00 0.00 0.00
0.01 0.02 0.06 0.05 0.02 0.02 0.00 0.00 0.01 0.00 0.00 0.00 0.00 0.00 0.00 0.00 0.00 0.03 0.04 0.01 0.01 0.02 0.01 0.00 0.01 0.01 0.00 0.00 0.00 0.00 0.00 0.00 0.00 0.00 0.00 0.00 0.00 0.00 0.00 0.00 0.00 0.00 0.00
0.00 0.00 0.00 0.00 0.01 0.06 0.01 0.00 0.02 0.02 0.01 0.04 0.00 0.00 0.00 0.00 0.00 0.00 0.01 0.00 0.02 0.01 0.00 0.00 0.00 0.01 0.00 0.00 0.00 0.00 0.00 0.00 0.00 0.00 0.00 0.00 0.00 0.00 0.00 0.00 0.00 0.00 0.00
0.00 0.00 0.00 0.00 0.00 0.03 0.01 0.01 0.01 0.00 0.02 0.05 0.00 0.00 0.00 0.00 0.00 0.00 0.00 0.00 0.00 0.00 0.01 0.00 0.00 0.00 0.00 0.00 0.00 0.00 0.00 0.00 0.00 0.00 0.00 0.00 0.00 0.00 0.00 0.00 0.00 0.00 0.00
0.00 0.00 0.00 0.00 0.00 0.01 0.04 0.01 0.00 0.00 0.00 0.00 0.00 0.00 0.00 0.00 0.00 0.00 0.00 0.00 0.00 0.00 0.00 0.00 0.02 0.01 0.04 0.02 0.02 0.00 0.00 0.00 0.00 0.00 0.00 0.00 0.00 0.00 0.00 0.00 0.00 0.00 0.00
0.00 0.00 0.00 0.00 0.00 0.00 0.00 0.00 0.00 0.00 0.00 0.01 0.00 0.00 0.00 0.00 0.00 0.00 0.00 0.00 0.00 0.02 0.00 0.00 0.06 0.04 0.00 0.03 0.01 0.00 0.00 0.00 0.00 0.00 0.00 0.00 0.00 0.00 0.00 0.00 0.00 0.00 0.00
0.00 0.00 0.00 0.00 0.00 0.00 0.00 0.00 0.00 0.00 0.00 0.00 0.00 0.00 0.00 0.00 0.00 0.00 0.00 0.00 0.00 0.00 0.00 0.00 0.01 0.00 0.00 0.03 0.01 0.00 0.00 0.00 0.00 0.00 0.00 0.00 0.00 0.00 0.00 0.00 0.00 0.00 0.00
0.00 0.00 0.00 0.00 0.00 0.00 0.00 0.00 0.00 0.00 0.00 0.01 0.00 0.00 0.00 0.03 0.00 0.00 0.00 0.00 0.00 0.00 0.00 0.00 0.00 0.00 0.02 0.08 0.01 0.06 0.01 0.01 0.05 0.03 0.00 0.00 0.00 0.00 0.00 0.00 0.00 0.00 0.00
MSLP
1014.41 1014.30 1014.54 1014.72 1014.99 1015.14 1015.06 1015.43 1015.81 1016.10 1016.41 1016.60 1016.89 1017.19 1017.47 1017.60 1017.80 1018.00 1018.00 1018.12 1018.25 1018.31 1018.31 1018.51 1018.79 1018.87 1018.89 1019.08 1019.29 1019.48 1019.66 1019.80 1019.96 1020.18 1020.40 1020.60 1020.65 1020.61 1020.72 1020.98 1021.14 1021.17 1021.47
1013.96 1014.42 1014.59 1014.86 1015.18 1015.49 1015.75 1015.75 1015.90 1016.26 1016.54 1016.92 1017.29 1017.70 1017.75 1017.82 1017.97 1018.03 1018.13 1018.33 1018.48 1018.56 1018.58 1018.78 1019.01 1019.17 1019.17 1019.28 1019.56 1019.74 1019.95 1020.10 1020.28 1020.51 1020.75 1020.90 1021.01 1021.15 1021.23 1021.39 1021.46 1021.53 1021.70
1014.17 1014.52 1014.93 1015.05 1015.34 1015.73 1016.00 1016.25 1016.30 1016.51 1016.87 1017.27 1017.58 1017.79 1018.00 1018.02 1018.07 1018.15 1018.12 1018.44 1018.69 1018.74 1018.81 1019.05 1019.22 1019.23 1019.36 1019.51 1019.63 1019.88 1020.04 1020.18 1020.37 1020.66 1020.97 1021.29 1021.39 1021.44 1021.54 1021.62 1021.67 1021.79 1021.94
1013.86 1014.52 1015.02 1015.39 1015.76 1015.97 1016.21 1016.47 1016.70 1016.98 1017.24 1017.51 1017.67 1017.82 1018.09 1018.27 1018.32 1018.26 1018.22 1018.44 1018.61 1018.69 1018.89 1019.14 1019.30 1019.36 1019.49 1019.60 1019.74 1019.92 1020.02 1020.16 1020.37 1020.69 1021.29 1021.51 1021.40 1021.61 1021.67 1021.77 1021.88 1021.96 1022.11
1014.23 1014.60 1015.15 1015.58 1015.80 1016.10 1016.45 1016.73 1017.14 1017.38 1017.51 1017.67 1017.88 1018.08 1018.27 1018.43 1018.50 1018.41 1018.42 1018.42 1018.66 1018.77 1019.04 1019.23 1019.23 1019.40 1019.52 1019.64 1019.82 1019.91 1020.10 1020.10 1020.53 1021.06 1021.45 1021.62 1021.70 1021.68 1021.78 1021.90 1022.01 1022.08 1022.28
1014.66 1015.02 1015.15 1015.66 1016.03 1016.22 1016.39 1016.96 1017.26 1017.58 1017.82 1017.85 1018.08 1018.28 1018.44 1018.56 1018.63 1018.64 1018.54 1018.61 1018.76 1018.91 1019.10 1019.31 1019.43 1019.48 1019.62 1019.80 1019.92 1019.92 1020.13 1020.42 1020.65 1021.33 1021.61 1021.61 1021.67 1021.72 1021.86 1022.04 1022.14 1022.24 1022.35
1014.96 1015.24 1015.49 1015.74 1016.10 1016.31 1016.58 1016.87 1017.37 1017.62 1017.91 1018.12 1018.24 1018.44 1018.50 1018.59 1018.74 1018.78 1018.78 1018.87 1018.92 1019.15 1019.31 1019.34 1019.50 1019.61 1019.75 1019.95 1020.08 1020.07 1020.26 1020.42 1020.96 1021.41 1021.73 1021.80 1021.91 1021.86 1021.96 1022.08 1022.21 1022.34 1022.50
1015.02 1015.23 1015.58 1015.85 1016.13 1016.44 1016.59 1016.89 1017.28 1017.56 1017.84 1018.16 1018.36 1018.45 1018.49 1018.65 1018.78 1018.91 1018.97 1018.97 1019.06 1019.27 1019.36 1019.50 1019.65 1019.68 1019.85 1020.07 1020.19 1020.20 1020.51 1020.47 1021.13 1021.62 1021.89 1022.02 1022.02 1022.03 1021.98 1022.12 1022.24 1022.46 1022.62
1015.02 1015.48 1015.77 1015.93 1016.13 1016.42 1016.68 1016.91 1017.20 1017.50 1017.72 1018.05 1018.29 1018.32 1018.44 1018.59 1018.69 1018.88 1018.94 1019.02 1019.22 1019.31 1019.46 1019.66 1019.65 1019.73 1019.89 1020.09 1020.24 1020.34 1020.56 1020.83 1021.50 1021.71 1021.88 1022.16 1022.15 1022.09 1022.01 1022.12 1022.28 1022.45 1022.62
1015.48 1015.62 1015.88 1016.09 1016.23 1016.47 1016.67 1016.89 1017.02 1017.21 1017.45 1017.88 1018.11 1018.20 1018.42 1018.50 1018.64 1018.90 1018.97 1019.14 1019.29 1019.31 1019.52 1019.64 1019.73 1019.90 1019.97 1020.14 1020.31 1020.45 1020.53 1020.95 1021.43 1021.64 1021.83 1022.08 1022.17 1022.11 1022.06 1022.05 1022.26 1022.39 1022.59
1015.96 1016.03 1016.02 1016.14 1016.27 1016.40 1016.53 1016.63 1016.93 1017.32 1017.50 1017.80 1017.97 1018.22 1018.48 1018.73 1018.88 1018.99 1019.11 1019.18 1019.21 1019.33 1019.52 1019.65 1019.68 1019.91 1020.06 1020.15 1020.21 1020.33 1020.45 1020.80 1021.19 1021.41 1021.58 1021.83 1022.02 1022.05 1022.05 1021.95 1022.09 1022.38 1022.61
1016.04 1016.25 1016.31 1016.26 1016.48 1016.56 1016.65 1016.91 1017.48 1017.82 1018.10 1018.35 1018.25 1018.42 1018.73 1018.96 1019.10 1019.26 1019.19 1019.11 1019.17 1019.30 1019.44 1019.59 1019.71 1019.90 1020.01 1020.24 1020.35 1020.46 1020.60 1020.74 1020.95 1021.10 1021.25 1021.53 1021.78 1021.81 1021.87 1021.88 1021.89 1022.11 1022.33
1015.73 1016.18 1016.40 1016.39 1016.46 1016.66 1017.01 1017.42 1017.78 1018.14 1018.54 1018.52 1018.54 1018.73 1018.94 1019.15 1019.32 1019.36 1019.40 1019.50 1019.36 1019.50 1019.61 1019.71 1019.97 1020.07 1020.11 1020.39 1020.49 1020.52 1020.71 1020.77 1020.73 1020.74 1020.84 1021.11 1021.42 1021.48 1021.54 1021.70 1021.64 1021.85 1022.11
1015.74 1016.10 1016.47 1016.53 1016.70 1016.87 1017.19 1017.52 1017.84 1018.20 1018.45 1018.68 1018.78 1018.91 1019.11 1019.34 1019.41 1019.44 1019.56 1019.81 1019.54 1019.60 1019.63 1019.61 1019.99 1020.07 1020.15 1020.36 1020.56 1020.60 1020.59 1020.66 1020.65 1020.70 1020.77 1020.91 1021.08 1021.19 1021.19 1021.31 1021.49 1021.64 1021.89
1015.87 1016.06 1016.42 1016.47 1016.81 1017.07 1017.33 1017.66 1017.82 1018.13 1018.43 1018.69 1018.92 1019.06 1019.07 1019.22 1019.38 1019.52 1019.51 1019.65 1019.68 1019.65 1019.60 1019.63 1019.80 1020.03 1020.18 1020.36 1020.64 1020.57 1020.50 1020.40 1020.49 1020.53 1020.60 1020.46 1020.51 1020.66 1020.81 1021.01 1021.23 1021.43 1021.67
1015.75 1015.95 1016.29 1016.69 1016.80 1017.07 1017.33 1017.61 1017.79 1018.10 1018.30 1018.63 1018.83 1018.82 1018.95 1019.05 1019.27 1019.78 1019.54 1019.53 1019.63 1019.67 1019.61 1019.64 1019.73 1019.98 1020.05 1020.15 1020.29 1020.19 1020.19 1020.25 1020.01 1020.06 1020.02 1020.05 1020.05 1020.17 1020.57 1020.69 1020.95 1021.15 1021.41
1015.24 1015.83 1016.19 1016.51 1016.68 1017.10 1017.40 1017.58 1017.80 1017.95 1018.25 1018.49 1018.60 1018.70 1018.79 1018.92 1019.24 1019.41 1019.33 1019.27 1019.49 1019.55 1019.62 1019.60 1019.51 1019.71 1019.85 1019.88 1019.90 1019.79 1019.98 1019.90 1019.71 1019.54 1019.66 1019.75 1019.72 1019.88 1020.28 1020.51 1020.66 1020.89 1021.07
1014.98 1015.54 1015.96 1016.33 1016.67 1017.06 1017.34 1017.56 1017.82 1017.94 1018.10 1018.38 1018.52 1018.63 1018.71 1018.71 1019.01 1019.43 1019.31 1019.41 1019.55 1019.73 1019.62 1019.33 1019.25 1019.53 1019.80 1019.84 1019.90 1019.73 1019.83 1019.85 1019.66 1019.60 1019.63 1019.59 1019.52 1019.76 1020.08 1020.35 1020.47 1020.63 1020.86
1014.33 1015.19 1015.75 1016.22 1016.52 1016.80 1017.14 1017.37 1017.74 1017.87 1018.01 1018.18 1018.32 1018.48 1018.56 1018.55 1018.73 1019.16 1019.34 1019.41 1019.58 1019.79 1019.51 1019.22 1019.19 1019.42 1019.62 1019.89 1020.04 1020.09 1020.06 1020.16 1019.98 1019.82 1019.80 1019.70 1019.53 1019.62 1019.99 1020.22 1020.28 1020.34 1020.53
1014.04 1014.89 1015.45 1015.82 1016.24 1016.59 1016.99 1017.35 1017.53 1017.85 1017.95 1018.10 1018.15 1018.22 1018.29 1018.35 1018.48 1018.85 1019.22 1019.35 1019.58 1019.57 1019.40 1019.31 1019.16 1019.36 1019.53 1019.99 1020.25 1020.34 1020.23 1020.10 1019.89 1019.80 1019.81 1019.55 1019.59 1019.71 1019.88 1020.09 1020.09 1020.11 1020.28
1013.69 1014.38 1014.98 1015.46 1015.95 1016.74 1017.10 1017.50 1017.65 1017.71 1017.85 1017.89 1017.79 1017.90 1018.08 1018.20 1018.30 1018.55 1018.73 1018.84 1019.21 1019.40 1019.08 1019.26 1019.28 1019.42 1019.77 1020.17 1020.67 1020.65 1020.39 1020.14 1019.89 1019.57 1019.50 1019.65 1019.53 1019.51 1019.70 1019.99 1020.06 1020.14 1020.20
1013.15 1013.82 1014.46 1014.85 1015.47 1015.95 1016.37 1016.74 1017.03 1017.33 1017.49 1017.11 1017.45 1017.65 1017.72 1017.87 1018.04 1018.24 1018.36 1018.38 1018.63 1018.97 1019.08 1019.20 1019.25 1019.39 1019.76 1020.25 1020.51 1020.87 1020.69 1020.39 1019.87 1019.52 1019.46 1019.49 1019.49 1019.45 1019.42 1019.57 1019.79 1019.86 1019.99
1012.74 1013.13 1013.62 1014.13 1014.72 1015.31 1015.94 1016.45 1016.90 1017.18 1017.29 1017.40 1017.38 1017.36 1017.24 1017.32 1017.60 1017.91 1018.10 1018.21 1018.36 1018.71 1018.93 1018.98 1019.10 1019.09 1019.37 1019.87 1020.16 1020.17 1020.60 1020.65 1020.30 1019.54 1019.45 1019.44 1019.39 1019.32 1019.13 1019.17 1019.22 1019.46 1019.64
1011.95 1012.58 1013.07 1013.65 1014.27 1014.92 1015.58 1016.22 1016.50 1016.77 1017.16 1017.03 1016.93 1016.77 1016.80 1016.86 1017.15 1017.44 1017.78 1018.01 1018.11 1018.27 1018.62 1018.72 1019.02 1019.02 1019.19 1019.37 1019.93 1020.10 1020.32 1020.54 1020.52 1019.82 1019.36 1019.18 1019.08 1018.88 1018.85 1018.86 1018.77 1018.92 1019.05
1012.17 1012.71 1013.14 1013.59 1014.02 1014.47 1015.16 1015.69 1016.30 1016.71 1016.85 1017.07 1017.00 1016.92 1016.87 1016.75 1016.70 1016.84 1017.21 1017.59 1017.89 1017.83 1018.08 1018.46 1018.68 1018.80 1019.00 1019.09 1019.54 1020.04 1020.24 1020.29 1020.35 1020.01 1019.31 1018.96 1018.88 1018.38 1018.44 1018.39 1018.29 1018.46 1018.53
1011.59 1012.22 1012.94 1013.65 1014.21 1014.52 1014.87 1015.38 1015.82 1016.26 1016.65 1017.13 1017.22 1017.06 1016.86 1016.75 1016.64 1016.49 1016.71 1017.04 1017.32 1017.54 1017.84 1018.11 1018.44 1018.61 1018.75 1018.82 1019.03 1019.47 1019.51 1019.68 1019.81 1019.70 1019.40 1018.92 1018.77 1018.12 1017.86 1017.81 1017.85 1017.89 1017.96
Thickness
5769 5770 5767 5766 5762 5761 5764 5760 5756 5754 5753 5752 5750 5748 5746 5745 5745 5744 5744 5743 5742 5741 5740 5738 5736 5735 5734 5732 5731 5731 5729 5727 5726 5725 5724 5723 5723 5724 5725 5724 5724 5724 5723
5772 5769 5769 5767 5764 5760 5758 5759 5757 5755 5753 5750 5747 5743 5743 5744 5744 5745 5743 5742 5741 5739 5738 5736 5734 5733 5733 5732 5730 5729 5727 5726 5726 5725 5723 5722 5722 5722 5722 5721 5722 5721 5721
5770 5767 5764 5765 5764 5760 5757 5755 5755 5754 5751 5748 5744 5741 5741 5743 5743 5743 5744 5742 5739 5737 5736 5734 5732 5733 5733 5732 5731 5728 5726 5726 5725 5724 5722 5721 5720 5720 5719 5720 5720 5720 5719
5772 5766 5763 5761 5758 5759 5757 5755 5753 5751 5750 5748 5745 5743 5741 5739 5741 5744 5745 5743 5741 5739 5737 5735 5732 5732 5731 5732 5730 5728 5728 5727 5727 5724 5721 5719 5720 5719 5719 5719 5719 5718 5717
5770 5767 5761 5757 5757 5758 5755 5753 5749 5747 5748 5746 5744 5742 5740 5738 5738 5742 5745 5745 5742 5740 5736 5735 5733 5732 5732 5731 5729 5729 5729 5729 5726 5724 5720 5720 5719 5719 5719 5719 5719 5719 5717
5766 5764 5762 5757 5754 5754 5755 5749 5749 5746 5745 5746 5744 5742 5740 5739 5738 5740 5744 5743 5742 5740 5737 5734 5733 5732 5730 5729 5729 5731 5730 5727 5726 5722 5720 5720 5720 5719 5719 5719 5719 5718 5718
5764 5762 5759 5757 5754 5754 5752 5752 5748 5746 5745 5743 5743 5742 5741 5739 5739 5741 5742 5740 5740 5737 5736 5734 5733 5732 5730 5728 5728 5729 5729 5727 5725 5724 5721 5719 5719 5718 5718 5718 5718 5718 5718
5764 5762 5759 5757 5755 5753 5754 5752 5750 5747 5746 5743 5743 5743 5741 5740 5739 5739 5739 5739 5738 5736 5736 5733 5732 5733 5731 5730 5728 5728 5727 5727 5725 5722 5721 5720 5719 5719 5719 5719 5718 5717 5717
5766 5762 5759 5757 5756 5754 5753 5753 5750 5747 5746 5744 5743 5744 5743 5742 5741 5739 5739 5739 5737 5736 5735 5733 5733 5734 5733 5732 5730 5729 5728 5725 5723 5722 5722 5721 5720 5720 5720 5720 5719 5717 5717
5764 5762 5760 5757 5756 5754 5753 5752 5752 5750 5748 5744 5744 5745 5743 5743 5742 5740 5741 5739 5738 5737 5736 5735 5734 5733 5734 5734 5731 5729 5730 5727 5725 5725 5724 5723 5722 5721 5721 5722 5720 5720 5718
5761 5761 5759 5759 5758 5756 5756 5755 5751 5749 5747 5745 5746 5745 5744 5743 5742 5741 5741 5740 5740 5738 5736 5736 5736 5734 5734 5734 5735 5732 5733 5731 5729 5728 5727 5725 5723 5724 5723 5724 5724 5722 5719
5759 5758 5759 5759 5757 5756 5755 5755 5747 5743 5741 5744 5746 5746 5743 5743 5741 5739 5740 5741 5740 5739 5739 5739 5738 5735 5735 5736 5736 5734 5734 5733 5732 5731 5731 5729 5727 5727 5726 5727 5727 5726 5723
5763 5760 5758 5758 5758 5755 5753 5750 5748 5745 5742 5744 5744 5744 5742 5742 5740 5740 5740 5740 5742 5741 5740 5741 5739 5737 5737 5735 5736 5736 5736 5735 5737 5737 5736 5733 5731 5731 5730 5729 5731 5729 5728
5762 5760 5758 5757 5756 5755 5752 5749 5747 5744 5744 5743 5743 5743 5742 5742 5740 5740 5740 5739 5742 5744 5743 5744 5741 5740 5740 5738 5738 5738 5738 5739 5739 5739 5740 5738 5735 5735 5735 5734 5734 5733 5732
5761 5761 5759 5759 5757 5755 5753 5749 5746 5744 5744 5743 5742 5742 5743 5742 5741 5740 5742 5741 5743 5744 5746 5745 5745 5744 5743 5740 5738 5740 5741 5742 5743 5742 5742 5744 5743 5742 5740 5738 5738 5737 5735
5764 5762 5762 5759 5757 5755 5754 5752 5749 5745 5746 5745 5744 5744 5743 5744 5743 5739 5742 5743 5743 5745 5746 5745 5746 5745 5744 5744 5742 5743 5744 5743 5746 5745 5746 5747 5747 5746 5743 5744 5743 5742 5740
5769 5764 5762 5761 5759 5756 5754 5753 5752 5749 5748 5748 5746 5745 5745 5745 5743 5742 5743 5744 5744 5746 5746 5746 5748 5748 5747 5749 5749 5748 5746 5747 5750 5751 5750 5751 5752 5749 5747 5747 5748 5747 5745
5771 5767 5765 5765 5762 5759 5756 5754 5753 5753 5751 5749 5747 5745 5745 5746 5744 5741 5742 5743 5743 5745 5746 5748 5751 5750 5750 5751 5751 5751 5749 5749 5752 5753 5754 5755 5755 5752 5750 5750 5751 5750 5749
5778 5771 5767 5765 5763 5761 5758 5756 5755 5754 5752 5750 5748 5746 5746 5747 5746 5744 5743 5743 5743 5743 5747 5750 5751 5752 5751 5749 5749 5749 5749 5749 5750 5752 5753 5755 5758 5756 5754 5754 5754 5754 5752
5782 5775 5770 5768 5765 5763 5759 5757 5756 5754 5752 5750 5749 5748 5747 5747 5746 5745 5743 5743 5741 5743 5748 5750 5752 5753 5752 5747 5746 5746 5748 5750 5751 5752 5753 5756 5758 5757 5757 5757 5757 5757 5756
5784 5778 5774 5769 5766 5760 5757 5755 5755 5755 5754 5753 5751 5751 5748 5747 5747 5746 5746 5746 5744 5745 5750 5751 5752 5752 5749 5747 5742 5741 5744 5747 5751 5754 5755 5756 5759 5759 5759 5758 5758 5758 5758
5788 5783 5777 5774 5769 5765 5762 5761 5759 5757 5754 5752 5754 5754 5752 5750 5749 5749 5749 5750 5748 5747 5747 5750 5752 5750 5749 5747 5742 5738 5737 5742 5749 5754 5756 5758 5760 5760 5761 5762 5762 5762 5762
5790 5788 5784 5780 5775 5771 5766 5761 5758 5756 5755 5754 5755 5756 5756 5756 5754 5751 5751 5751 5749 5746 5746 5749 5750 5752 5749 5748 5746 5743 5735 5730 5736 5751 5755 5758 5761 5762 5765 5766 5767 5766 5766
5799 5794 5790 5784 5778 5773 5767 5762 5759 5755 5751 5755 5758 5760 5760 5759 5756 5755 5752 5751 5750 5748 5748 5749 5749 5752 5752 5749 5745 5745 5742 5738 5733 5742 5754 5760 5763 5766 5768 5769 5770 5769 5770
5801 5795 5790 5785 5780 5777 5771 5766 5759 5754 5754 5754 5755 5756 5756 5759 5759 5758 5756 5754 5752 5754 5753 5750 5750 5752 5752 5750 5746 5742 5741 5741 5740 5742 5748 5757 5763 5769 5770 5771 5773 5772 5773
5808 5802 5794 5785 5779 5775 5771 5766 5761 5756 5753 5750 5750 5751 5754 5757 5759 5760 5759 5758 5756 5755 5754 5752 5751 5751 5751 5750 5750 5746 5747 5745 5743 5745 5749 5756 5759 5769 5774 5775 5776 5777 5777